BREEZE-M DEB, 38643

Orbit data source: Space-Track

BREEZE-M DEB, 38643 is space debris in HEO originally from a launch on Fri, 14 Mar 2008 UTC launched from the Tyuratam Missile And Space Complex (TTMTR). Debris objects in space refer to the collection of defunct objects orbiting the Earth. Examples of debris include non-operational satellites, rocket bodies, and fragments generated from explosions, collisions, or faulty payload assembly.

Loading next visibility...
Identifier
38643, 2008-011CS
Orbit
HEO
Country
Flag of CISCIS
Related business
Manufacturer
Unknown
Mission
Spacecraft
Bus & Motor
Unknown
Mass
Unknown
Launch date (UTC)
2008-03-14 (18 years ago)
Launch vehicle
Unknown
Launch site
Tyuratam Missile And Space Complex (TTMTR)
Object type
Payload
Rocket body
Debris
Shape & HBR
Unknown shape, 0.3 m
Radar Cross Section
Medium (>0.1 m² and <1 m²)

Expand to show TLE details & history
Last TLE update: 3 days ago

TLE from 3 days ago
0 BREEZE-M DEB
1 38643U 08011CS  26171.28624102  .00006027  00000-0  17775-1 0  9999
2 38643  49.8070 252.7001 6316919 261.6036 118.3817  3.41341969 31520
Epoch: 2026-06-20T06:52Z
TLE epoch observation values (Epoch: 2026-06-20T06:52:11.224Z)
Latitude
42.69614°
Longitude
-67.72725°
Altitude
21,410.228 km
Speed
2.703 km/s
True Right ascension
20h 15m 17s
True Declination
42° 39' 08"
Sunlit
Object was in daylight at epoch
Visualization orbit readout
Latitude
Unknown
Longitude
Unknown
Altitude
Unknown
Speed
Unknown
Apparent Right ascension
Unknown
Apparent Declination
Unknown
Sunlit
N/A
Visualization observer readout
Local Sidereal Time
11:04:48
Azimuth
Unknown
Elevation
Unknown
Doppler factor
Unknown
Orbital elements
Apogee altitude
24,025.711 km
Perigee altitude
484.668 km
Semi-major axis
18,633.327 km
Eccentricity
0.63169
Inclination
49.807°
RAAN
252.7001°
Arg. of periapsis
261.6036°
True anomaly
160.9551°
Mean anomaly
118.3817°
Eccentric anomaly
141.10653°
Mean motion
0.85331 °/min
Orbital period
421.89 mins
BSTAR
0.017775
Loading maneuver chart data...
Computing Atmospheric mass density...
Loading historical data...
Loading historical data...
Loading historical data...
Loading historical data...
Loading historical data...
Loading historical data...
Loading historical data...

Documentation

Showing up to 5 results
|